Location: Czu?�w
(50.1404°N, 18.9919°E)
Time: 11:32:11
(UTC+00:00)

USA 308 - Pass Details

Date: 27 October 2020
Orbit: 571 x 578 km, 54.0° (Epoch: 23 November)

Event Time Altitude Azimuth Distance (km) Brightness Sun altitude
Rises 17:00:49 0° 293° (WNW) 2,788 7.6 -15.3°
Reaches altitude 10° 17:03:05 10° 294° (WNW) 1,887 6.6 -15.6°
Maximum altitude 17:07:23 83° 22° (NNE) 583 2.8 -16.3°
Enters shadow 17:09:21 31° 109° (ESE) 1,006 3.6 -16.6°
